This is the latest recevied weather packets stored in our database for station/object KI5NXU. If no packets are shown the sender has not sent any weather packets the latest 10 day(s).
| Time | Temp. | Humidity | Pressure | Rain* | Wind** | Luminosity | Snow |
|---|---|---|---|---|---|---|---|
| 1777121031 | 16.67° C | 96% | 1005.7 hPa | 0 mm | - | 42 W/m² | - |
| 1777120727 | 16.11° C | 96% | 1005.7 hPa | 0 mm | - | 33 W/m² | - |
| 1777120423 | 16.11° C | 96% | 1005.5 hPa | 0 mm | - | 30 W/m² | - |
| 1777120119 | 16.11° C | 96% | 1005.5 hPa | 0 mm | - | 25 W/m² | - |
| 1777119814 | 15.56° C | 96% | 1005.5 hPa | 0 mm | - | 21 W/m² | - |
| 1777119510 | 15.56° C | 96% | 1005.3 hPa | 0 mm | - | 19 W/m² | - |
| 1777119206 | 15.56° C | 96% | 1005.3 hPa | 0 mm | - | 17 W/m² | - |
| 1777118901 | 15.56° C | 96% | 1005.5 hPa | 0 mm | - | 12 W/m² | - |
| 1777118597 | 15.56° C | 96% | 1005.2 hPa | 0 mm | - | 8 W/m² | - |
| 1777118297 | 15.56° C | 96% | 1005.6 hPa | 0 mm | - | 5 W/m² | - |
| 1777117994 | 15.56° C | 96% | 1005.5 hPa | 0 mm | - | 2 W/m² | - |
| 1777117686 | 15.56° C | 96% | 1005.3 hPa | 0 mm | - | 0 W/m² | - |
| 1777117383 | 15.56° C | 96% | 1005.5 hPa | 0 mm | - | 0 W/m² | - |
| 1777117079 | 15.56° C | 96% | 1005.5 hPa | 0 mm | - | 0 W/m² | - |
| 1777116774 | 15.56° C | 96% | 1005.4 hPa | 0 mm | - | 0 W/m² | - |
| 1777116470 | 15.56° C | 96% | 1005.2 hPa | 0 mm | - | 0 W/m² | - |
| 1777116167 | 16.11° C | 96% | 1005.5 hPa | 0 mm | - | 0 W/m² | - |
| 1777115865 | 15.56° C | 96% | 1005.3 hPa | 0 mm | - | 0 W/m² | - |
| 1777115562 | 15.56° C | 96% | 1005.3 hPa | 0 mm | - | 0 W/m² | - |
| 1777115258 | 15.56° C | 96% | 1005.3 hPa | 0 mm | - | 0 W/m² | - |
| 1777114955 | 15.56° C | 96% | 1005.4 hPa | 0 mm | - | 0 W/m² | - |
| 1777114652 | 15.56° C | 96% | 1005.5 hPa | 0 mm | - | 0 W/m² | - |
| 1777114352 | 15.56° C | 96% | 1005.4 hPa | 0 mm | - | 0 W/m² | - |
| 1777114049 | 15.56° C | 96% | 1005.4 hPa | 0 mm | - | 0 W/m² | - |
| 1777113745 | 15.56° C | 96% | 1005.1 hPa | 0 mm | - | 0 W/m² | - |
* Rain latest hour (hover to see other rain measurements)
** Current wind speed in m/s (hover to see current wind gust speed)